Regional Weather Roundup
Issued by NWS Sioux Falls, SD

Home | Current Version | Previous Version | Graphics & Text | Print | Product List | Glossary On
Versions: 1 2 3 4 5 6 7 8 9 10 11 12 13 14 15 16 17 18 19 20 21 22 23 24 25 26 27 28 29 30 31 32 33 34 35 36 37 38 39 40 41 42 43 44 45 46 47 48 49 50
000
ASUS43 KFSD 172002
RWRFSD

WEATHER ROUNDUP FOR SE SOUTH DAKOTA/SW MINNESOTA/NW IOWA
NATIONAL WEATHER SERVICE SIOUX FALLS SD
300 PM CDT FRI APR 17 2015

NOTE: "FAIR" INDICATES FEW OR NO CLOUDS BELOW 12,000 FEET WITH NO
SIGNIFICANT WEATHER AND OR OBSTRUCTIONS TO VISIBILITY.


SDZ038>040-050-052>070-172100-
SOUTHEAST SOUTH DAKOTA

CITY           SKY/WX    TMP DP  RH WIND       PRES   REMARKS
BROOKINGS      SUNNY     72  28  20 NW10      30.08F
CHAMBERLAIN    NOT AVBL
HURON          MOSUNNY   74  29  19 N12G22    30.08F
MADISON        FAIR      72  37  28 NW12      30.08F
MITCHELL       SUNNY     74  39  28 N10G17    30.08F
SIOUX FALLS    PTSUNNY   75  42  30 CALM      30.06F
WINNER         FAIR      68  40  35 E9        30.10F
YANKTON        CLOUDY    70  48  46 SW6       30.06F
$$

MNZ071-072-080-081-089-090-097-098-172100-
SOUTHWEST MINNESOTA

CITY           SKY/WX    TMP DP  RH WIND       PRES   REMARKS
FAIRMONT       SUNNY     75  43  31 NW9       30.05F
JACKSON        MOSUNNY   73  37  27 W6        30.07F
LUVERNE        SUNNY     75  41  29 CALM      30.07F
MARSHALL       SUNNY     72  27  18 NW13      30.08F
MONTEVIDEO     SUNNY     75  28  17 N6        30.08F
PIPESTONE      SUNNY     72  36  26 CALM      30.08F
REDWOOD FALLS  SUNNY     73  35  25 W7        30.05F
TRACY          SUNNY     73  35  24 NW5       30.08S
WORTHINGTON    MOSUNNY   72  43  35 E6        30.07F
$$

IAZ001>003-012>014-020>022-031-032-NEZ013-014-SDZ071-172100-
NORTHWEST IOWA

CITY           SKY/WX    TMP DP  RH WIND       PRES   REMARKS
DENISON        PTSUNNY   73  50  43 CALM      30.02F
ESTHERVILLE    MOSUNNY   74  43  32 CALM      30.05F
SIOUX CITY     CLOUDY    75  49  39 VRB6      30.04F
SPENCER        MOSUNNY   76  44  32 E3        30.05F
$$

ABBREVIATIONS USED IN REMARKS
   TC - TEMPERATURE IN CELSIUS
  WCI - WIND CHILL INDEX
   HX - HEAT INDEX
  VSB - VISIBILITY




USA.gov is the U.S. government's official web portal to all federal, state and local government web resources and services.